This is the latest recevied weather packets stored in our database for station/object N4ASP-13. If no packets are shown the sender has not sent any weather packets the latest 10 day(s).
| Time | Temp. | Humidity | Pressure | Rain* | Wind** | Luminosity | Snow |
|---|---|---|---|---|---|---|---|
| 1777296638 | 8.33° C | 84% | 1023.6 hPa | 0 mm | - | 290 W/m² | - |
| 1777296577 | 8.33° C | 84% | 1023.7 hPa | 0 mm | - | 287 W/m² | - |
| 1777296515 | 8.33° C | 84% | 1023.7 hPa | 0 mm | - | 279 W/m² | - |
| 1777296456 | 8.33° C | 84% | 1023.6 hPa | 0 mm | - | 281 W/m² | - |
| 1777296395 | 8.33° C | 84% | 1023.7 hPa | 0 mm | - | 267 W/m² | - |
| 1777296333 | 8.33° C | 84% | 1023.7 hPa | 0 mm | - | 260 W/m² | - |
| 1777296273 | 8.33° C | 85% | 1023.7 hPa | 0 mm | - | 257 W/m² | - |
| 1777296215 | 8.33° C | 84% | 1023.7 hPa | 0 mm | - | 265 W/m² | - |
| 1777296153 | 8.33° C | 84% | 1023.8 hPa | 0 mm | - | 251 W/m² | - |
| 1777296094 | 8.33° C | 85% | 1023.7 hPa | 0 mm | - | 243 W/m² | - |
| 1777296033 | 8.33° C | 85% | 1023.7 hPa | 0 mm | - | 274 W/m² | - |
| 1777295974 | 8.33° C | 84% | 1023.6 hPa | 0 mm | - | 287 W/m² | - |
| 1777295914 | 8.33° C | 85% | 1023.7 hPa | 0 mm | - | 278 W/m² | - |
| 1777295851 | 8.33° C | 85% | 1023.7 hPa | 0 mm | - | 262 W/m² | - |
| 1777295793 | 8.33° C | 85% | 1023.6 hPa | 0 mm | - | 258 W/m² | - |
| 1777295731 | 8.33° C | 85% | 1023.6 hPa | 0 mm | - | 260 W/m² | - |
| 1777295671 | 8.33° C | 85% | 1023.6 hPa | 0 mm | - | 255 W/m² | - |
| 1777295611 | 8.33° C | 85% | 1023.6 hPa | 0 mm | - | 250 W/m² | - |
| 1777295552 | 8.33° C | 85% | 1023.6 hPa | 0 mm | - | 246 W/m² | - |
| 1777295490 | 8.33° C | 86% | 1023.5 hPa | 0 mm | - | 251 W/m² | - |
| 1777295429 | 8.33° C | 86% | 1023.5 hPa | 0 mm | - | 255 W/m² | - |
| 1777295369 | 8.33° C | 85% | 1023.5 hPa | 0 mm | - | 241 W/m² | - |
| 1777295309 | 8.33° C | 85% | 1023.3 hPa | 0 mm | - | 236 W/m² | - |
| 1777295249 | 8.33° C | 85% | 1023.3 hPa | 0 mm | - | 234 W/m² | - |
| 1777295189 | 8.33° C | 85% | 1023.5 hPa | 0 mm | - | 220 W/m² | - |
* Rain latest hour (hover to see other rain measurements)
** Current wind speed in m/s (hover to see current wind gust speed)